| time (UTC) | temp F | wind direction | speed knots | gust knots | rain 1hr in | rain 24hr in | rain mn in | humidity % | barometer mb |
| 20260504174555 | 81 | 279 | 8.7 | 17.4 | 0.00 | 0.00 | 0.00 | 23 | 1001.1 |
| 20260504173053 | 81 | 304 | 10.4 | 14.8 | 0.00 | 0.00 | 0.00 | 23 | 1001.3 |
| 20260504171558 | 80 | 308 | 11.3 | 16.5 | 0.00 | 0.00 | 0.00 | 24 | 1001.5 |
| 20260504081508 | 52 | 106 | 0.9 | 3.5 | 0.00 | 0.00 | 0.00 | 61 | 1002.8 |
| 20260504044532 | 56 | 123 | 0.0 | 0.9 | 0.00 | 0.00 | 0.00 | 55 | 1006.0 |
| 20260504043033 | 56 | 141 | 0.0 | 2.6 | 0.00 | 0.00 | 0.00 | 53 | 1006.0 |
| 20260504041529 | 56 | 153 | 0.0 | 2.6 | 0.00 | 0.00 | 0.00 | 54 | 1006.2 |
| 20260504040039 | 57 | 146 | 0.0 | 1.7 | 0.00 | 0.00 | 0.00 | 52 | 1006.6 |
| 20260504034525 | 58 | 146 | 0.0 | 1.7 | 0.00 | 0.00 | 0.00 | 51 | 1006.7 |
| 20260504033024 | 60 | 146 | 0.9 | 1.7 | 0.00 | 0.00 | 0.00 | 46 | 1006.9 |
| 20260504031524 | 59 | 146 | 0.9 | 2.6 | 0.00 | 0.00 | 0.00 | 48 | 1006.9 |
| 20260504030024 | 60 | 92 | 0.0 | 3.5 | 0.00 | 0.00 | 0.00 | 45 | 1007.0 |
| 20260504024523 | 61 | 97 | 4.3 | 6.1 | 0.00 | 0.00 | 0.00 | 45 | 1006.7 |
| 20260504023020 | 61 | 82 | 2.6 | 3.5 | 0.00 | 0.00 | 0.00 | 46 | 1006.9 |
| 20260504021520 | 62 | 86 | 1.7 | 3.5 | 0.00 | 0.00 | 0.00 | 46 | 1007.0 |
| 20260504020019 | 62 | 76 | 2.6 | 3.5 | 0.00 | 0.00 | 0.00 | 46 | 1007.2 |
| 20260504014524 | 63 | 96 | 1.7 | 3.5 | 0.00 | 0.00 | 0.00 | 45 | 1007.1 |
| 20260504013019 | 63 | 76 | 1.7 | 2.6 | 0.00 | 0.00 | 0.00 | 44 | 1007.1 |
| 20260504011520 | 65 | 79 | 2.6 | 3.5 | 0.00 | 0.00 | 0.00 | 44 | 1007.1 |
| 20260504010016 | 67 | 70 | 2.6 | 4.3 | 0.00 | 0.00 | 0.00 | 39 | 1007.2 |
| 20260504004514 | 68 | 58 | 2.6 | 4.3 | 0.00 | 0.00 | 0.00 | 39 | 1007.4 |
| 20260504003013 | 69 | 61 | 1.7 | 4.3 | 0.00 | 0.00 | 0.00 | 37 | 1007.5 |
| 20260504001511 | 71 | 62 | 2.6 | 5.2 | 0.00 | 0.00 | 0.00 | 38 | 1007.7 |
| 20260504000010 | 72 | 40 | 0.9 | 5.2 | 0.00 | 0.00 | 0.00 | 31 | 1007.9 |
| 20260503234509 | 72 | 65 | 1.7 | 9.6 | 0.00 | 0.00 | 0.00 | 33 | 1008.1 |
| 20260503233008 | 73 | 42 | 4.3 | 9.6 | 0.00 | 0.00 | 0.00 | 29 | 1008.2 |
| 20260503231508 | 74 | 163 | 2.6 | 7.8 | 0.00 | 0.00 | 0.00 | 29 | 1008.1 |
| 20260503230011 | 73 | 140 | 1.7 | 4.3 | 0.00 | 0.00 | 0.00 | 27 | 1008.3 |
| 20260503224508 | 74 | 268 | 0.9 | 4.3 | 0.00 | 0.00 | 0.00 | 29 | 1008.1 |
| 20260503223005 | 74 | 51 | 0.9 | 7.8 | 0.00 | 0.00 | 0.00 | 31 | 1008.5 |
| 20260503221503 | 74 | 13 | 2.6 | 7.0 | 0.00 | 0.00 | 0.00 | 27 | 1008.4 |
| 20260503220003 | 74 | 35 | 0.9 | 3.5 | 0.00 | 0.00 | 0.00 | 31 | 1008.6 |
| 20260503214506 | 74 | 321 | 2.6 | 9.6 | 0.00 | 0.00 | 0.00 | 27 | 1008.7 |
| 20260503213059 | 75 | 329 | 0.9 | 8.7 | 0.00 | 0.00 | 0.00 | 27 | 1008.8 |
| 20260503211558 | 75 | 331 | 5.2 | 9.6 | 0.00 | 0.00 | 0.00 | 29 | 1009.0 |
| 20260503210054 | 75 | 87 | 7.0 | 11.3 | 0.00 | 0.00 | 0.00 | 27 | 1009.2 |
| 20260503204551 | 73 | 243 | 2.6 | 4.3 | 0.00 | 0.00 | 0.00 | 29 | 1009.5 |
| 20260503203049 | 74 | 172 | 2.6 | 13.9 | 0.00 | 0.00 | 0.00 | 30 | 1009.8 |
| 20260503201548 | 74 | 12 | 0.9 | 8.7 | 0.00 | 0.00 | 0.00 | 32 | 1009.9 |
| 20260503200050 | 72 | 315 | 4.3 | 10.4 | 0.00 | 0.00 | 0.00 | 29 | 1010.3 |
| 20260503194544 | 73 | 34 | 4.3 | 11.3 | 0.00 | 0.00 | 0.00 | 28 | 1010.3 |
| 20260503193048 | 74 | 355 | 7.8 | 13.9 | 0.00 | 0.00 | 0.00 | 28 | 1010.5 |
| 20260503191542 | 74 | 332 | 9.6 | 13.0 | 0.00 | 0.00 | 0.00 | 27 | 1010.5 |
| 20260503190046 | 74 | 31 | 3.5 | 13.9 | 0.00 | 0.00 | 0.00 | 29 | 1010.6 |
| 20260503184541 | 74 | 9 | 6.1 | 11.3 | 0.00 | 0.00 | 0.00 | 28 | 1010.7 |
| 20260503183052 | 74 | 63 | 6.1 | 13.0 | 0.00 | 0.00 | 0.00 | 34 | 1010.8 |
| 20260503181540 | 72 | 18 | 4.3 | 8.7 | 0.00 | 0.00 | 0.00 | 32 | 1011.0 |
| 20260503180037 | 73 | 323 | 5.2 | 14.8 | 0.00 | 0.00 | 0.00 | 32 | 1011.1 |